Regional Weather Roundup
Issued by NWS Upton, NY

Current Version | Previous Version | Text Only | Print | Product List | Glossary On
Versions: 1 2 3 4 5 6 7 8 9 10 11 12 13 14 15 16 17 18 19 20 21 22 23 24 25 26 27 28 29 30 31 32 33 34 35 36 37 38 39 40 41 42 43 44 45 46 47 48 49 50
000
ASUS41 KOKX 280118
RWROKX

REGIONAL WEATHER ROUNDUP
NATIONAL WEATHER SERVICE NEW YORK NY
900 PM EDT WED MAY 27 2015

NOTE: "FAIR" INDICATES FEW OR NO CLOUDS BELOW 12,000 FEET WITH NO
SIGNIFICANT WEATHER AND/OR OBSTRUCTIONS TO VISIBILITY.

NYZ071-072-176-178-NJZ106-104-280200-
NEW YORK CITY METRO AREA


CITY           SKY/WX    TMP DP  RH WIND       PRES   REMARKS
CENTRAL PARK   LGT RAIN  71  67  87 SW3       30.17R
LAGUARDIA APRT LGT RAIN  71  63  75 CALM      30.13S
KENNEDY INTL   CLOUDY    63  57  81 S14       30.15F
NEWARK/LIBERTY CLOUDY    73  68  84 S5        30.13R
BRNX BOT. GARD   N/A     66  64  94 E2        30.14F
TETERBORO      LGT RAIN  73  68  84 S7        30.12R
$$

NYZ177-179-078>081-280200-
LONG ISLAND NEW YORK

CITY           SKY/WX    TMP DP  RH WIND       PRES   REMARKS
FARMINGDALE    CLOUDY    66  60  81 SW14      30.17R
ISLIP          MOCLDY    66  60  81 S18G30    30.15S
SHIRLEY        MOCLDY    66  60  81 SW12G18   30.19R
WESTHAMPTON    CLEAR     63  59  87 SW8       30.20R
MONTAUK POINT    N/A     63  58  83 S9G18     30.21R
$$

NYZ052-065-067-280200-
HUDSON VALLEY

CITY           SKY/WX    TMP DP  RH WIND       PRES   REMARKS
WHITE PLAINS   LGT RAIN  66  64  93 S3        30.14S FOG
NEWBURGH       NOT AVBL
MONTGOMERY     CLOUDY    70  68  93 SW5       30.12S
POUGHKEEPSIE   CLOUDY    70  66  87 SE5       30.11F
ALBANY         CLOUDY    70  66  87 S12       30.07R
$$

NJZ001-105-106-008-010-013-015-019>022-104-280200-
NEW JERSEY

CITY           SKY/WX    TMP DP  RH WIND       PRES   REMARKS
NEWARK/LIBERTY CLOUDY    73  68  84 S5        30.13R
TETERBORO      LGT RAIN  73  68  84 S7        30.12R
CALDWELL       CLOUDY    72  67  84 CALM      30.14R
MORRISTOWN     MOCLDY    73  70  88 CALM      30.14R
SOMERVILLE     CLOUDY    71  69  93 CALM      30.12R FOG
SUSSEX         CLOUDY    69  66  90 CALM      30.15R
ANDOVER          N/A     69  68  96 CALM      30.14R
TRENTON        CLOUDY    72  69  90 S6        30.13R
MILLVILLE      PTCLDY    72  66  81 SE5       30.17R
ATLANTIC CITY  PTCLDY    69  62  78 S12       30.17R
WRIGHTSTOWN    MOCLDY    72  71  99 S6        30.12S
TOMS RIVER     PTCLDY   N/A N/A N/A S12       30.15F
BELMAR         MOCLDY    72  61  68 S8        30.15F
$$

PAZ047>061-062-071-280200-
EASTERN PENNSYLVANIA

CITY           SKY/WX    TMP DP  RH WIND       PRES   REMARKS
PHILADELPHIA   CLOUDY    74  69  85 S5        30.15R
ALLENTOWN      PTCLDY    69  67  93 CALM      30.13R
SCRANTON       PTCLDY    70  66  87 CALM      30.12R
$$

CTZ002-004>006-009-010-012-RIZ004-006-007-MAZ004-011-015-280200-
SOUTHERN NEW ENGLAND
 IN CT

CITY           SKY/WX    TMP DP  RH WIND       PRES   REMARKS
BRADLEY INTL   RAIN      70  66  87 CALM      30.13R FOG
HARTFORD       LGT RAIN  70  64  81 S7        30.14F
DANBURY        LGT RAIN  68  64  87 CALM      30.16R
WTRBRY/OXFORD  CLOUDY    68  61  77 S5        30.18R
BRIDGEPORT     MOCLDY    68  61  78 S12       30.14S
MERIDEN        CLOUDY    70  62  76 S9        30.15R
NEW HAVEN      MOCLDY    66  61  84 S8        30.16F
CHESTER        CLOUDY    66  63  88 SW7       30.18F
GROTON         CLOUDY    64  58  80 SW7       30.19R
WILLIMANTIC    PTCLDY    71  62  73 S10       30.15F

 IN RI

CITY           SKY/WX    TMP DP  RH WIND       PRES   REMARKS
PROVIDENCE     MOCLDY    69  60  73 SW12      30.19R
BLOCK ISLAND   CLEAR     61  55  82 SW15      30.20S
WESTERLY       MOCLDY    63  57  81 SW8       30.20S

 IN MA

CITY           SKY/WX    TMP DP  RH WIND       PRES   REMARKS
BOSTON         PTCLDY    72  63  73 SW16G23   30.13R
WORCESTER      MOCLDY    70  62  76 SW18      30.17R
WESTFIELD      RAIN      69  66  90 S7        30.13S FOG
PROVINCETOWN   CLEAR     61  55  82 SW18G24   30.18S
NANTUCKET      CLEAR     61  57  87 SW10      30.23R
$$

ANZ330-335-338-340-345-350-353-355-280200-
COASTAL MARINE OBSERVATIONS


STATION/POSITION TIME  SKY/WX   TEMP    WIND        PRES    VSBY  WAVE
                                AIR SEA DIR/SP/G                  HT/PER
                 (UTC)          (F)     (DEG/KT/KT) (MB)    (MI)  (FT/S)
NY HARB ENTRANCE 0050            59 51  210/ 14/ 17 1020.7          4/ 6
4S FIRE IS       0003               57                N/A           6/ 6
20S FIRE ISLAND  0050            62 57  200/ 14/ 16 1021.7          5/ 6
GREAT SOUTH BAY  0000            64 69  250/ 17/ 25   N/A
23SW MTP         0050            60 54  210/ 14/ 16 1022.0          4/ 6
HUDSON CANYON    NOT AVBL
KINGS POINT      0000            66 58  190/ 11/ 14 1020.0
CENTRAL LI SOUND 0000            63 56  200/ 16/ 17   N/A
EASTERN LI SOUND 0000            61     150/  4/  8   N/A
ROBBINS REEF     0000            72     230/ 12/ 17 1018.8
$$


>>>>>>>>>>>>>>>>>>>>>>>>>>>> KEY <<<<<<<<<<<<<<<<<<<<<<<<<<<
>                                                          <
>     SKY/WX - SKY CONDITION/PRESENT WEATHER               <
>     TMP    - TEMPERATURE IN FAHRENHEIT                   <
>     DP     - DEWPOINT IN FAHRENHEIT                      <
>     RH     - RELATIVE HUMIDITY IN PERCENT                <
>     WIND   - DIRECTION AND SPEED IN MPH                  <
>     PRES   - MEAN SEA LEVEL PRESSURE IN INCHES OF HG     <
>     WCI    - WIND CHILL INDEX                            <
>     VSB    - VISIBILITY IN MILES                         <
>     HX     - HEAT INDEX                                  <
>     TC     - TEMPERATURE IN CELSIUS                      <
>     VRB    - VARIABLE WIND DIRECTION                     <
>                                                          <
>>>>>>>>>>>>>>>>>>>>>>>>>>>> KEY <<<<<<<<<<<<<<<<<<<<<<<<<<<




USA.gov is the U.S. government's official web portal to all federal, state and local government web resources and services.